NOVITA': Servizio sperimentale per la consultazione dei dati spaziali di precipitazioni in tempo reale via web-GIS. Clicca per accedere
LEGENDA
Aree di allertamento per la Regione Siciliana
Aree d'allertamento
A
B
C
D
E
F
G
H
I
Data: Data ed Ora solare di acquisizione del dato in campo, nel formato GG/MM/AAAA HH.MM
Temperatura: Temperatura ambiente in °C
Pioggia: Pioggia caduta nell'ultima ora espressa in mm
Pioggia3: Pioggia caduta nell'ultime 3 ore espressa in mm
Pioggia24: Pioggia caduta nell'ultime 24 ore espressa in mm
Pioggia48: Pioggia caduta nell'ultime 48 ore espressa in mm
Pioggia72: Pioggia caduta nell'ultime 72 ore espressa in mm
Latitudine, Longitudine: Coordinate nel formato Gradi.Primi.Secondi / Datum WGS84
NOTA: Questo elaborato viene prodotto "al volo" su richiesta dell'utente e non subisce alcuna valutazione preliminare di congruenza

AREA DI ALLERTAMENTO G

 
Stazione: AUGUSTA
ID: 109 Latitudine: 37.13.37N Logitudine: 15.12.31E Località: AUGUSTA (SR) Bacino: Bacini minori fra MULINELLO e LENTINI
Data Temperatura Pioggia Pioggia3 Pioggia24 Pioggia48 Pioggia72
17-01-2019 05:30 2.4 0.0 0.0 0.0 0.0 0.4
17-01-2019 06:00 2.5 0.0 0.0 0.0 0.0 0.4
17-01-2019 06:30 3.2 0.0 0.0 0.0 0.0 0.4
17-01-2019 07:00 2.8 0.0 0.0 0.0 0.0 0.4
17-01-2019 07:30 2.5 0.0 0.0 0.0 0.0 0.4
17-01-2019 08:00 3.4 0.0 0.0 0.0 0.0 0.4
17-01-2019 08:30 5.4 0.0 0.0 0.0 0.0 0.4
17-01-2019 09:00 8.1 0.0 0.0 0.0 0.0 0.4
17-01-2019 09:30 11.3 0.0 0.0 0.0 0.0 0.4
 
Stazione: BUCCHERI
ID: 085 Latitudine: 37.07.35N Logitudine: 14.50.45E Località: BUCCHERI (SR) Bacino: LENTINI
Data Temperatura Pioggia Pioggia3 Pioggia24 Pioggia48 Pioggia72
17-01-2019 05:30 5.8 0.0 0.0 0.0 0.0 2.2
17-01-2019 06:00 5.5 0.0 0.0 0.0 0.0 2.2
17-01-2019 06:30 5.8 0.0 0.0 0.0 0.0 2.2
17-01-2019 07:00 6.0 0.0 0.0 0.0 0.0 2.2
17-01-2019 07:30 6.0 0.0 0.0 0.0 0.0 2.2
17-01-2019 08:00 6.1 0.1 0.1 0.1 0.1 2.3
17-01-2019 08:30 6.3 0.1 0.1 0.1 0.1 2.3
17-01-2019 09:00 6.6 0.1 0.1 0.1 0.1 2.3
17-01-2019 09:30 6.8 0.0 0.1 0.1 0.1 2.3
 
Stazione: CANICATTINI BAGNI
ID: 154 Latitudine: 37.01.45N Logitudine: 15.03.23E Località: CANICATTINI BAGNI (SR) Bacino: ANAPO
Data Temperatura Pioggia Pioggia3 Pioggia24 Pioggia48 Pioggia72
17-01-2019 06:00 6.7 0.0 0.0 0.0 0.0 0.1
17-01-2019 09:00 7.8 0.0 0.0 0.0 0.0 0.1
 
Stazione: CIANE
ID: 086 Latitudine: 37.03.08N Logitudine: 15.14.11E Località: SIRACUSA (SR) Bacino: ANAPO
Data Temperatura Pioggia Pioggia3 Pioggia24 Pioggia48 Pioggia72
17-01-2019 08:16 9,999.0 0.0 0.0 0.0 0.0 0.0
17-01-2019 08:20 9,999.0 0.0 0.0 0.0 0.0 0.0
17-01-2019 08:48 9,999.0 0.0 0.0 0.0 0.0 0.0
17-01-2019 09:00 9,999.0 0.0 0.0 0.0 0.0 0.0
 
Stazione: FRANCOFONTE
ID: 110 Latitudine: 37.13.20N Logitudine: 14.52.00E Località: FRANCOFONTE (SR) Bacino: LENTINI
Data Temperatura Pioggia Pioggia3 Pioggia24 Pioggia48 Pioggia72
17-01-2019 05:30 4.6 0.0 0.0 0.0 0.0 0.5
17-01-2019 06:00 3.9 0.0 0.0 0.0 0.0 0.5
17-01-2019 06:30 3.4 0.0 0.0 0.0 0.0 0.5
17-01-2019 07:00 4.1 0.0 0.0 0.0 0.0 0.5
17-01-2019 07:30 4.4 0.0 0.0 0.0 0.0 0.5
17-01-2019 08:00 4.4 0.0 0.0 0.0 0.0 0.5
17-01-2019 08:30 5.0 0.0 0.0 0.0 0.0 0.5
17-01-2019 09:00 7.1 0.0 0.0 0.0 0.0 0.5
17-01-2019 09:30 9.1 0.0 0.0 0.0 0.0 0.5
 
Stazione: MILITELLO VAL DI CATANIA
ID: 211 Latitudine: 37.16.29N Logitudine: 14.47.38E Località: MILITELLO IN VAL DI CATANIA (CT) Bacino: LENTINI
Data Temperatura Pioggia Pioggia3 Pioggia24 Pioggia48 Pioggia72
17-01-2019 05:30 5.9 0.0 0.0 0.0 0.0 1.2
17-01-2019 06:00 5.8 0.0 0.0 0.0 0.0 1.2
17-01-2019 06:30 5.6 0.0 0.0 0.0 0.0 1.2
17-01-2019 07:00 5.9 0.0 0.0 0.0 0.0 1.2
17-01-2019 07:30 6.2 0.0 0.0 0.0 0.0 1.2
17-01-2019 08:00 6.9 0.0 0.0 0.0 0.0 1.2
17-01-2019 08:30 8.0 0.0 0.0 0.0 0.0 1.2
17-01-2019 09:00 9.7 0.0 0.0 0.0 0.0 1.2
17-01-2019 09:30 10.0 0.0 0.0 0.0 0.0 1.2
 
Stazione: NOTO
ID: 260 Latitudine: Logitudine: Località: NOTO (SR) Bacino: Bacini minori fra TELLARO e NOTO
Data Temperatura Pioggia Pioggia3 Pioggia24 Pioggia48 Pioggia72
17-01-2019 05:30 6.5 0.0 0.0 0.0 0.0 0.0
17-01-2019 06:00 6.8 0.0 0.0 0.0 0.0 0.0
17-01-2019 06:30 7.1 0.0 0.0 0.0 0.0 0.0
17-01-2019 07:00 7.6 0.0 0.0 0.0 0.0 0.0
17-01-2019 07:30 7.4 0.0 0.0 0.0 0.0 0.0
17-01-2019 08:00 8.2 0.0 0.0 0.0 0.0 0.0
17-01-2019 08:30 9.6 0.0 0.0 0.0 0.0 0.0
17-01-2019 09:00 9.6 0.0 0.0 0.0 0.0 0.0
17-01-2019 09:30 10.2 0.0 0.0 0.0 0.0 0.0
 
Stazione: PACHINO
ID: 105 Latitudine: 36.44.00N Logitudine: 15.06.33E Località: PACHINO (SR) Bacino: Bacini minori fra Capo Passero e TELLARO
Data Temperatura Pioggia Pioggia3 Pioggia24 Pioggia48 Pioggia72
17-01-2019 06:00 7.6 0.0 0.0 0.0 0.0 0.1
17-01-2019 09:00 9.2 0.0 0.0 0.0 0.0 0.1
 
Stazione: PALAZZOLO ACREIDE
ID: 106 Latitudine: 37.04.06N Logitudine: 14.54.35E Località: PALAZZOLO ACREIDE (SR) Bacino: ANAPO
Data Temperatura Pioggia Pioggia3 Pioggia24 Pioggia48 Pioggia72
17-01-2019 06:00 6.0 0.0 0.0 0.0 0.0 1.6
17-01-2019 09:00 6.8 0.0 0.0 0.0 0.0 1.6
 
Stazione: SIRACUSA
ID: 108 Latitudine: 37.04.27N Logitudine: 15.16.50E Località: SIRACUSA (SR) Bacino: Bacini minori fra ANAPO e CANTERA
Data Temperatura Pioggia Pioggia3 Pioggia24 Pioggia48 Pioggia72
17-01-2019 05:30 5.0 0.0 0.0 0.0 0.0 0.0
17-01-2019 06:00 4.8 0.0 0.0 0.0 0.0 0.0
17-01-2019 06:30 4.6 0.0 0.0 0.0 0.0 0.0
17-01-2019 07:00 5.7 0.0 0.0 0.0 0.0 0.0
17-01-2019 07:30 5.3 0.0 0.0 0.0 0.0 0.0
17-01-2019 08:00 5.5 0.0 0.0 0.0 0.0 0.0
17-01-2019 08:30 8.6 0.0 0.0 0.0 0.0 0.0
17-01-2019 09:00 13.4 0.0 0.0 0.0 0.0 0.0
17-01-2019 09:30 14.9 0.0 0.0 0.0 0.0 0.0